| time (UTC) | temp F | wind direction | speed knots | gust knots | rain 1hr in | rain 24hr in | rain mn in | humidity % | barometer mb |
| 20260831112201 | 88 | 205 | 0.0 | 3.5 | 0.00 | 0.00 | 0.00 | 47 | 1014.1 |
| 20260831111201 | 89 | 297 | 1.7 | 6.1 | 0.00 | 0.00 | 0.00 | 46 | 1014.2 |
| 20260831110701 | 88 | 158 | 1.7 | 6.1 | 0.00 | 0.00 | 0.00 | 46 | 1014.1 |
| 20260831110201 | 88 | 144 | 1.7 | 5.2 | 0.00 | 0.00 | 0.00 | 47 | 1014.2 |
| 20260831105701 | 87 | 219 | 0.9 | 6.1 | 0.00 | 0.00 | 0.00 | 47 | 1014.2 |
| 20260831105201 | 87 | 202 | 0.9 | 7.0 | 0.00 | 0.00 | 0.00 | 48 | 1014.3 |
| 20260831104701 | 87 | 208 | 0.9 | 7.0 | 0.00 | 0.00 | 0.00 | 47 | 1014.3 |
| 20260831104201 | 88 | 225 | 0.9 | 5.2 | 0.00 | 0.00 | 0.00 | 47 | 1014.3 |
| 20260831103701 | 88 | 225 | 0.9 | 4.3 | 0.00 | 0.00 | 0.00 | 48 | 1014.3 |
| 20260831102201 | 87 | 242 | 0.9 | 7.0 | 0.00 | 0.00 | 0.00 | 49 | 1014.4 |
| 20260831101701 | 87 | 226 | 0.0 | 6.1 | 0.00 | 0.00 | 0.00 | 51 | 1014.4 |
| 20260831101201 | 86 | 191 | 0.0 | 4.3 | 0.00 | 0.00 | 0.00 | 51 | 1014.4 |
| 20260831100701 | 86 | 223 | 0.0 | 0.0 | 0.00 | 0.00 | 0.00 | 52 | 1014.5 |
| 20260831100201 | 86 | 218 | 0.9 | 5.2 | 0.00 | 0.00 | 0.00 | 51 | 1014.5 |
| 20260831095702 | 86 | 229 | 0.9 | 5.2 | 0.00 | 0.00 | 0.00 | 53 | 1014.5 |
| 20260831095202 | 85 | 200 | 0.0 | 3.5 | 0.00 | 0.00 | 0.00 | 53 | 1014.5 |
| 20260831094702 | 85 | 166 | 0.0 | 3.5 | 0.00 | 0.00 | 0.00 | 53 | 1014.5 |
| 20260831094201 | 84 | 218 | 0.0 | 6.1 | 0.00 | 0.00 | 0.00 | 53 | 1014.5 |
| 20260831093701 | 84 | 222 | 0.0 | 6.1 | 0.00 | 0.00 | 0.00 | 53 | 1014.5 |
| 20260831092701 | 84 | 306 | 0.0 | 6.1 | 0.00 | 0.00 | 0.00 | 53 | 1014.7 |
| 20260831092201 | 84 | 252 | 0.0 | 6.1 | 0.00 | 0.00 | 0.00 | 53 | 1014.7 |
| 20260831091700 | 84 | 244 | 0.0 | 0.0 | 0.00 | 0.00 | 0.00 | 54 | 1014.7 |
| 20260831091201 | 84 | 231 | 0.0 | 0.0 | 0.00 | 0.00 | 0.00 | 54 | 1014.7 |
| 20260831090700 | 84 | 201 | 0.0 | 0.0 | 0.00 | 0.00 | 0.00 | 54 | 1014.7 |
| 20260831085701 | 83 | 183 | 0.0 | 0.0 | 0.00 | 0.00 | 0.00 | 56 | 1014.7 |
| 20260831085158 | 82 | 218 | 0.0 | 0.0 | 0.00 | 0.00 | 0.00 | 56 | 1014.7 |
| 20260831084653 | 82 | 355 | 0.0 | 0.0 | 0.00 | 0.00 | 0.00 | 56 | 1014.7 |
| 20260831084146 | 82 | 266 | 0.0 | 0.0 | 0.00 | 0.00 | 0.00 | 56 | 1014.7 |
| 20260831083647 | 82 | 265 | 0.0 | 0.0 | 0.00 | 0.00 | 0.00 | 56 | 1014.7 |
| 20260831082645 | 82 | 25 | 0.0 | 0.0 | 0.00 | 0.00 | 0.00 | 56 | 1014.7 |
| 20260831081644 | 82 | 344 | 0.0 | 0.0 | 0.00 | 0.00 | 0.00 | 57 | 1014.7 |
| 20260831081141 | 81 | 344 | 0.0 | 0.0 | 0.00 | 0.00 | 0.00 | 57 | 1014.5 |
| 20260831080639 | 81 | 343 | 0.0 | 0.0 | 0.00 | 0.00 | 0.00 | 59 | 1014.5 |
| 20260831080139 | 80 | 343 | 0.0 | 0.0 | 0.00 | 0.00 | 0.00 | 60 | 1014.5 |
| 20260831075639 | 80 | 341 | 0.0 | 0.0 | 0.00 | 0.00 | 0.00 | 60 | 1014.4 |
| 20260831075137 | 79 | 340 | 0.0 | 0.0 | 0.00 | 0.00 | 0.00 | 61 | 1014.4 |
| 20260831074635 | 79 | 340 | 0.0 | 0.0 | 0.00 | 0.00 | 0.00 | 62 | 1014.4 |
| 20260831074133 | 79 | 340 | 0.0 | 0.0 | 0.00 | 0.00 | 0.00 | 61 | 1014.4 |
| 20260831073630 | 78 | 340 | 0.0 | 0.0 | 0.00 | 0.00 | 0.00 | 62 | 1014.3 |
| 20260831073133 | 78 | 340 | 0.0 | 0.0 | 0.00 | 0.00 | 0.00 | 63 | 1014.2 |
| 20260831072629 | 78 | 340 | 0.0 | 0.0 | 0.00 | 0.00 | 0.00 | 62 | 1014.2 |
| 20260831071629 | 77 | 289 | 0.0 | 0.0 | 0.00 | 0.00 | 0.00 | 63 | 1014.3 |
| 20260831071129 | 77 | 289 | 0.0 | 0.0 | 0.00 | 0.00 | 0.00 | 63 | 1014.3 |
| 20260831070127 | 76 | 288 | 0.0 | 0.0 | 0.00 | 0.00 | 0.00 | 65 | 1014.2 |
| 20260831065621 | 76 | 288 | 0.0 | 0.0 | 0.00 | 0.00 | 0.00 | 65 | 1014.3 |
| 20260831065114 | 76 | 288 | 0.0 | 0.0 | 0.00 | 0.00 | 0.00 | 65 | 1014.1 |
| 20260831064109 | 75 | 288 | 0.0 | 0.0 | 0.00 | 0.00 | 0.00 | 66 | 1014.1 |
| 20260831063611 | 75 | 285 | 0.0 | 0.0 | 0.00 | 0.00 | 0.00 | 67 | 1014.1 |
| 20260831063106 | 74 | 285 | 0.0 | 0.0 | 0.00 | 0.00 | 0.00 | 68 | 1014.1 |
| 20260831062607 | 74 | 284 | 0.0 | 0.0 | 0.00 | 0.00 | 0.00 | 68 | 1014.1 |
| 20260831062106 | 74 | 284 | 0.0 | 0.0 | 0.00 | 0.00 | 0.00 | 68 | 1014.2 |
| 20260831061607 | 73 | 285 | 0.0 | 0.0 | 0.00 | 0.00 | 0.00 | 69 | 1014.2 |
| 20260831061106 | 73 | 284 | 0.0 | 0.0 | 0.00 | 0.00 | 0.00 | 69 | 1014.2 |
| 20260831060108 | 72 | 284 | 0.0 | 0.0 | 0.00 | 0.00 | 0.00 | 70 | 1014.1 |
| 20260831055102 | 72 | 284 | 0.0 | 0.0 | 0.00 | 0.00 | 0.00 | 71 | 1014.1 |
| 20260831054602 | 72 | 284 | 0.0 | 0.0 | 0.00 | 0.00 | 0.00 | 72 | 1014.0 |
| 20260831054102 | 71 | 284 | 0.0 | 0.0 | 0.00 | 0.00 | 0.00 | 72 | 1014.0 |
| 20260831053103 | 71 | 284 | 0.0 | 0.0 | 0.00 | 0.00 | 0.00 | 73 | 1014.0 |
| 20260831052606 | 71 | 284 | 0.0 | 0.0 | 0.00 | 0.00 | 0.00 | 73 | 1013.9 |
| 20260831052103 | 70 | 284 | 0.0 | 0.0 | 0.00 | 0.00 | 0.00 | 73 | 1013.8 |
| 20260831051603 | 70 | 284 | 0.0 | 0.0 | 0.00 | 0.00 | 0.00 | 73 | 1013.8 |
| 20260831051102 | 70 | 284 | 0.0 | 0.0 | 0.00 | 0.00 | 0.00 | 74 | 1013.8 |
| 20260831050602 | 70 | 284 | 0.0 | 0.0 | 0.00 | 0.00 | 0.00 | 74 | 1013.7 |
| 20260831045603 | 70 | 284 | 0.0 | 0.0 | 0.00 | 0.00 | 0.00 | 74 | 1013.6 |
| 20260831045101 | 70 | 284 | 0.0 | 0.0 | 0.00 | 0.00 | 0.00 | 74 | 1013.6 |
| 20260831044601 | 70 | 284 | 0.0 | 0.0 | 0.00 | 0.00 | 0.00 | 73 | 1013.6 |
| 20260831044101 | 70 | 284 | 0.0 | 0.0 | 0.00 | 0.00 | 0.00 | 73 | 1013.7 |
| 20260831043601 | 70 | 284 | 0.0 | 0.0 | 0.00 | 0.00 | 0.00 | 73 | 1013.6 |
| 20260831043101 | 70 | 284 | 0.0 | 0.0 | 0.00 | 0.00 | 0.00 | 73 | 1013.6 |
| 20260831042600 | 70 | 284 | 0.0 | 0.0 | 0.00 | 0.00 | 0.00 | 73 | 1013.6 |
| 20260831042102 | 70 | 284 | 0.0 | 0.0 | 0.00 | 0.00 | 0.00 | 73 | 1013.6 |
| 20260831035556 | 70 | 284 | 0.0 | 0.0 | 0.00 | 0.00 | 0.00 | 75 | 1013.5 |
| 20260831034544 | 70 | 269 | 0.0 | 0.0 | 0.00 | 0.00 | 0.00 | 76 | 1013.6 |
| 20260831034038 | 70 | 209 | 0.0 | 0.0 | 0.00 | 0.00 | 0.00 | 76 | 1013.6 |
| 20260831033038 | 70 | 205 | 0.0 | 0.0 | 0.00 | 0.00 | 0.00 | 77 | 1013.6 |
| 20260831032541 | 70 | 205 | 0.0 | 0.0 | 0.00 | 0.00 | 0.00 | 78 | 1013.7 |
| 20260831032036 | 70 | 205 | 0.0 | 0.0 | 0.00 | 0.00 | 0.00 | 79 | 1013.8 |
| 20260831031535 | 69 | 205 | 0.0 | 0.0 | 0.00 | 0.00 | 0.00 | 79 | 1013.9 |
| 20260831031032 | 69 | 205 | 0.0 | 0.0 | 0.00 | 0.00 | 0.00 | 79 | 1013.9 |
| 20260831030032 | 69 | 205 | 0.0 | 0.0 | 0.00 | 0.00 | 0.00 | 80 | 1014.0 |
| 20260831025530 | 69 | 205 | 0.0 | 0.0 | 0.00 | 0.00 | 0.00 | 80 | 1014.0 |
| 20260831025029 | 69 | 205 | 0.0 | 0.0 | 0.00 | 0.00 | 0.00 | 80 | 1014.0 |
| 20260831024529 | 70 | 205 | 0.0 | 0.0 | 0.00 | 0.00 | 0.00 | 79 | 1014.0 |
| 20260831024029 | 70 | 205 | 0.0 | 0.0 | 0.00 | 0.00 | 0.00 | 79 | 1014.0 |
| 20260831023529 | 70 | 205 | 0.0 | 0.0 | 0.00 | 0.00 | 0.00 | 79 | 1013.9 |
| 20260831022529 | 70 | 205 | 0.0 | 0.0 | 0.00 | 0.00 | 0.00 | 78 | 1013.8 |
| 20260831022028 | 70 | 205 | 0.0 | 0.0 | 0.00 | 0.00 | 0.00 | 78 | 1013.9 |
| 20260831021529 | 70 | 205 | 0.0 | 0.0 | 0.00 | 0.00 | 0.00 | 78 | 1014.0 |
| 20260831021029 | 70 | 205 | 0.0 | 0.0 | 0.00 | 0.00 | 0.00 | 78 | 1013.9 |
| 20260831020529 | 70 | 205 | 0.0 | 0.0 | 0.00 | 0.00 | 0.00 | 78 | 1014.0 |
| 20260831020028 | 70 | 205 | 0.0 | 0.0 | 0.00 | 0.00 | 0.00 | 78 | 1014.0 |
| 20260831015529 | 70 | 205 | 0.0 | 0.0 | 0.00 | 0.00 | 0.00 | 78 | 1014.0 |
| 20260831015029 | 70 | 205 | 0.0 | 0.0 | 0.00 | 0.00 | 0.00 | 77 | 1014.0 |
| 20260831014529 | 70 | 205 | 0.0 | 0.0 | 0.00 | 0.00 | 0.00 | 77 | 1014.0 |
| 20260831014028 | 70 | 205 | 0.0 | 0.0 | 0.00 | 0.00 | 0.00 | 77 | 1014.0 |
| 20260831013529 | 70 | 205 | 0.0 | 0.0 | 0.00 | 0.00 | 0.00 | 77 | 1014.0 |
| 20260831013029 | 71 | 205 | 0.0 | 0.0 | 0.00 | 0.00 | 0.00 | 77 | 1014.0 |
| 20260831012529 | 71 | 205 | 0.0 | 0.0 | 0.00 | 0.00 | 0.00 | 77 | 1014.0 |
| 20260831012030 | 71 | 205 | 0.0 | 0.0 | 0.00 | 0.00 | 0.00 | 77 | 1014.0 |
| 20260831011530 | 71 | 205 | 0.0 | 0.0 | 0.00 | 0.00 | 0.00 | 77 | 1014.1 |
| 20260831011030 | 71 | 205 | 0.0 | 0.0 | 0.00 | 0.00 | 0.00 | 77 | 1014.1 |
| 20260831010529 | 71 | 205 | 0.0 | 0.0 | 0.00 | 0.00 | 0.00 | 77 | 1014.1 |
| 20260831005529 | 71 | 205 | 0.0 | 0.0 | 0.00 | 0.00 | 0.00 | 77 | 1014.1 |
| 20260831005028 | 71 | 205 | 0.0 | 0.0 | 0.00 | 0.00 | 0.00 | 77 | 1014.1 |
| 20260831004528 | 71 | 205 | 0.0 | 0.0 | 0.00 | 0.00 | 0.00 | 77 | 1014.1 |
| 20260831004021 | 71 | 205 | 0.0 | 0.0 | 0.00 | 0.00 | 0.00 | 77 | 1014.1 |
| 20260831003515 | 71 | 205 | 0.0 | 0.0 | 0.00 | 0.00 | 0.00 | 77 | 1014.1 |
| 20260831003010 | 71 | 205 | 0.0 | 0.0 | 0.00 | 0.00 | 0.00 | 77 | 1014.1 |
| 20260831002504 | 71 | 205 | 0.0 | 0.0 | 0.00 | 0.00 | 0.00 | 77 | 1014.1 |
| 20260831002004 | 71 | 205 | 0.0 | 0.0 | 0.00 | 0.00 | 0.00 | 77 | 1014.1 |
| 20260831001502 | 71 | 205 | 0.0 | 0.0 | 0.00 | 0.00 | 0.00 | 77 | 1014.2 |
| 20260831001002 | 72 | 205 | 0.0 | 0.0 | 0.00 | 0.00 | 0.00 | 77 | 1014.2 |
| 20260831000501 | 72 | 205 | 0.0 | 0.0 | 0.00 | 0.00 | 0.00 | 77 | 1014.3 |
| 20260831000002 | 72 | 205 | 0.0 | 0.0 | 0.00 | 0.00 | 0.00 | 77 | 1014.3 |
| 20260830235502 | 72 | 205 | 0.0 | 0.0 | 0.00 | 0.00 | 0.00 | 77 | 1014.3 |
| 20260830235002 | 72 | 205 | 0.0 | 0.0 | 0.00 | 0.00 | 0.00 | 76 | 1014.3 |
| 20260830234502 | 72 | 205 | 0.0 | 0.0 | 0.00 | 0.00 | 0.00 | 76 | 1014.3 |
| 20260830234002 | 72 | 205 | 0.0 | 0.0 | 0.00 | 0.00 | 0.00 | 76 | 1014.3 |
| 20260830233502 | 73 | 205 | 0.0 | 0.0 | 0.00 | 0.00 | 0.00 | 76 | 1014.3 |
| 20260830233003 | 73 | 196 | 0.0 | 0.0 | 0.00 | 0.00 | 0.00 | 75 | 1014.2 |
| 20260830232503 | 73 | 194 | 0.0 | 0.0 | 0.00 | 0.00 | 0.00 | 75 | 1014.3 |
| 20260830232002 | 73 | 194 | 0.0 | 0.0 | 0.00 | 0.00 | 0.00 | 74 | 1014.3 |
| 20260830231502 | 74 | 194 | 0.0 | 0.0 | 0.00 | 0.00 | 0.00 | 74 | 1014.3 |
| 20260830231003 | 74 | 194 | 0.0 | 0.0 | 0.00 | 0.00 | 0.00 | 74 | 1014.3 |
| 20260830230501 | 74 | 194 | 0.0 | 0.0 | 0.00 | 0.00 | 0.00 | 73 | 1014.3 |
| 20260830230002 | 74 | 194 | 0.0 | 0.0 | 0.00 | 0.00 | 0.00 | 73 | 1014.3 |
| 20260830225503 | 74 | 194 | 0.0 | 0.0 | 0.00 | 0.00 | 0.00 | 74 | 1014.3 |
| 20260830224501 | 74 | 194 | 0.0 | 0.0 | 0.00 | 0.00 | 0.00 | 74 | 1014.3 |
| 20260830223502 | 73 | 194 | 0.0 | 0.0 | 0.00 | 0.00 | 0.00 | 75 | 1014.4 |
| 20260830223001 | 74 | 194 | 0.0 | 0.0 | 0.00 | 0.00 | 0.00 | 75 | 1014.4 |
| 20260830222501 | 74 | 194 | 0.0 | 0.0 | 0.00 | 0.00 | 0.00 | 75 | 1014.4 |
| 20260830221501 | 74 | 194 | 0.0 | 1.7 | 0.00 | 0.00 | 0.00 | 76 | 1014.3 |
| 20260830221002 | 74 | 194 | 0.0 | 0.9 | 0.00 | 0.00 | 0.00 | 76 | 1014.3 |
| 20260830220502 | 74 | 191 | 0.0 | 0.9 | 0.00 | 0.00 | 0.00 | 75 | 1014.3 |
| 20260830215959 | 74 | 186 | 0.0 | 0.0 | 0.00 | 0.00 | 0.00 | 75 | 1014.3 |
| 20260830215457 | 74 | 183 | 0.0 | 0.0 | 0.00 | 0.00 | 0.00 | 75 | 1014.3 |
| 20260830214957 | 74 | 183 | 0.0 | 0.0 | 0.00 | 0.00 | 0.00 | 75 | 1014.3 |
| 20260830213953 | 74 | 183 | 0.0 | 0.0 | 0.00 | 0.00 | 0.00 | 74 | 1014.3 |
| 20260830213453 | 75 | 183 | 0.0 | 0.0 | 0.00 | 0.00 | 0.00 | 74 | 1014.3 |
| 20260830212952 | 75 | 183 | 0.0 | 0.0 | 0.00 | 0.00 | 0.00 | 74 | 1014.3 |
| 20260830212451 | 75 | 183 | 0.0 | 0.0 | 0.00 | 0.00 | 0.00 | 74 | 1014.2 |
| 20260830211450 | 75 | 183 | 0.0 | 1.7 | 0.00 | 0.00 | 0.00 | 73 | 1014.2 |
| 20260830210951 | 75 | 182 | 0.0 | 1.7 | 0.00 | 0.00 | 0.00 | 73 | 1014.2 |
| 20260830210451 | 76 | 182 | 0.0 | 0.0 | 0.00 | 0.00 | 0.00 | 72 | 1014.1 |
| 20260830205450 | 76 | 182 | 0.0 | 0.0 | 0.00 | 0.00 | 0.00 | 72 | 1014.1 |
| 20260830204950 | 76 | 182 | 0.0 | 0.0 | 0.00 | 0.00 | 0.00 | 71 | 1014.0 |
| 20260830204450 | 76 | 182 | 0.0 | 0.0 | 0.00 | 0.00 | 0.00 | 71 | 1014.1 |
| 20260830203951 | 76 | 182 | 0.0 | 0.0 | 0.00 | 0.00 | 0.00 | 70 | 1014.0 |
| 20260830203451 | 76 | 182 | 0.0 | 0.0 | 0.00 | 0.00 | 0.00 | 70 | 1014.0 |
| 20260830202951 | 76 | 182 | 0.0 | 0.0 | 0.00 | 0.00 | 0.00 | 70 | 1014.0 |
| 20260830202452 | 77 | 182 | 0.0 | 0.0 | 0.00 | 0.00 | 0.00 | 70 | 1014.0 |
| 20260830201947 | 77 | 182 | 0.0 | 0.0 | 0.00 | 0.00 | 0.00 | 69 | 1014.0 |
| 20260830201447 | 77 | 182 | 0.0 | 0.0 | 0.00 | 0.00 | 0.00 | 69 | 1014.0 |
| 20260830200947 | 77 | 182 | 0.0 | 0.0 | 0.00 | 0.00 | 0.00 | 68 | 1014.1 |
| 20260830200447 | 77 | 182 | 0.0 | 0.0 | 0.00 | 0.00 | 0.00 | 68 | 1014.0 |
| 20260830195947 | 78 | 182 | 0.0 | 0.0 | 0.00 | 0.00 | 0.00 | 68 | 1014.0 |
| 20260830195447 | 78 | 182 | 0.0 | 0.0 | 0.00 | 0.00 | 0.00 | 68 | 1014.0 |
| 20260830194447 | 78 | 182 | 0.0 | 0.0 | 0.00 | 0.00 | 0.00 | 67 | 1013.9 |
| 20260830193946 | 79 | 182 | 0.0 | 0.0 | 0.00 | 0.00 | 0.00 | 66 | 1013.9 |
| 20260830193443 | 79 | 182 | 0.0 | 0.0 | 0.00 | 0.00 | 0.00 | 66 | 1013.9 |
| 20260830192942 | 79 | 182 | 0.0 | 0.0 | 0.00 | 0.00 | 0.00 | 66 | 1013.8 |
| 20260830192441 | 79 | 182 | 0.0 | 0.0 | 0.00 | 0.00 | 0.00 | 66 | 1013.8 |
| 20260830191937 | 80 | 182 | 0.0 | 0.0 | 0.00 | 0.00 | 0.00 | 66 | 1013.8 |
| 20260830191434 | 80 | 182 | 0.0 | 0.0 | 0.00 | 0.00 | 0.00 | 65 | 1013.8 |
| 20260830190934 | 80 | 182 | 0.0 | 0.0 | 0.00 | 0.00 | 0.00 | 64 | 1013.8 |
| 20260830190434 | 80 | 182 | 0.0 | 0.0 | 0.00 | 0.00 | 0.00 | 63 | 1013.8 |
| 20260830185929 | 80 | 182 | 0.0 | 0.0 | 0.00 | 0.00 | 0.00 | 63 | 1013.7 |
| 20260830185430 | 81 | 182 | 0.0 | 0.0 | 0.00 | 0.00 | 0.00 | 62 | 1013.7 |
| 20260830184929 | 81 | 182 | 0.0 | 0.0 | 0.00 | 0.00 | 0.00 | 61 | 1013.7 |
| 20260830184429 | 81 | 182 | 0.0 | 0.0 | 0.00 | 0.00 | 0.00 | 60 | 1013.7 |
| 20260830183929 | 82 | 182 | 0.0 | 0.0 | 0.00 | 0.00 | 0.00 | 60 | 1013.7 |
| 20260830183429 | 82 | 182 | 0.0 | 0.0 | 0.00 | 0.00 | 0.00 | 59 | 1013.6 |
| 20260830182929 | 82 | 182 | 0.0 | 0.0 | 0.00 | 0.00 | 0.00 | 59 | 1013.5 |
| 20260830182429 | 83 | 182 | 0.0 | 0.0 | 0.00 | 0.00 | 0.00 | 58 | 1013.4 |
| 20260830181930 | 83 | 182 | 0.0 | 0.0 | 0.00 | 0.00 | 0.00 | 57 | 1013.4 |
| 20260830181429 | 83 | 182 | 0.0 | 0.0 | 0.00 | 0.00 | 0.00 | 57 | 1013.3 |
| 20260830180929 | 83 | 182 | 0.0 | 0.0 | 0.00 | 0.00 | 0.00 | 56 | 1013.3 |
| 20260830175930 | 84 | 182 | 0.0 | 0.0 | 0.00 | 0.00 | 0.00 | 54 | 1013.2 |
| 20260830175428 | 85 | 182 | 0.0 | 0.0 | 0.00 | 0.00 | 0.00 | 53 | 1013.1 |
| 20260830174929 | 85 | 182 | 0.0 | 0.0 | 0.00 | 0.00 | 0.00 | 52 | 1013.1 |
| 20260830173930 | 86 | 182 | 0.0 | 0.0 | 0.00 | 0.00 | 0.00 | 51 | 1013.0 |
| 20260830173428 | 87 | 182 | 0.0 | 0.0 | 0.00 | 0.00 | 0.00 | 50 | 1013.0 |
| 20260830172929 | 87 | 182 | 0.0 | 0.0 | 0.00 | 0.00 | 0.00 | 49 | 1013.0 |
| 20260830171929 | 88 | 182 | 0.0 | 1.7 | 0.00 | 0.00 | 0.00 | 48 | 1013.0 |
| 20260830171429 | 89 | 182 | 0.0 | 0.9 | 0.00 | 0.00 | 0.00 | 47 | 1013.0 |
| 20260830170429 | 89 | 182 | 0.0 | 1.7 | 0.00 | 0.00 | 0.00 | 46 | 1013.1 |
| 20260830165929 | 89 | 187 | 0.0 | 0.0 | 0.00 | 0.00 | 0.00 | 46 | 1013.1 |
| 20260830164929 | 90 | 193 | 0.0 | 0.0 | 0.00 | 0.00 | 0.00 | 45 | 1013.2 |
| 20260830164429 | 90 | 193 | 0.0 | 2.6 | 0.00 | 0.00 | 0.00 | 45 | 1013.2 |
| 20260830163422 | 90 | 184 | 0.0 | 1.7 | 0.00 | 0.00 | 0.00 | 45 | 1013.3 |
| 20260830162418 | 89 | 187 | 0.9 | 2.6 | 0.00 | 0.00 | 0.00 | 46 | 1013.3 |
| 20260830161907 | 89 | 126 | 0.9 | 5.2 | 0.00 | 0.00 | 0.00 | 45 | 1013.4 |
| 20260830161407 | 89 | 154 | 1.7 | 5.2 | 0.00 | 0.00 | 0.00 | 44 | 1013.4 |
| 20260830160906 | 89 | 109 | 0.9 | 5.2 | 0.00 | 0.00 | 0.00 | 45 | 1013.4 |
| 20260830160406 | 90 | 125 | 0.9 | 5.2 | 0.00 | 0.00 | 0.00 | 44 | 1013.4 |
| 20260830155906 | 90 | 135 | 0.0 | 3.5 | 0.00 | 0.00 | 0.00 | 45 | 1013.4 |
| 20260830154902 | 91 | 115 | 0.0 | 3.5 | 0.00 | 0.00 | 0.00 | 43 | 1013.4 |
| 20260830154401 | 91 | 180 | 0.0 | 1.7 | 0.00 | 0.00 | 0.00 | 45 | 1013.4 |
| 20260830153901 | 91 | 155 | 0.9 | 5.2 | 0.00 | 0.00 | 0.00 | 45 | 1013.4 |
| 20260830153401 | 90 | 191 | 0.9 | 6.1 | 0.00 | 0.00 | 0.00 | 45 | 1013.4 |
| 20260830152902 | 90 | 104 | 0.9 | 7.8 | 0.00 | 0.00 | 0.00 | 46 | 1013.5 |
| 20260830152402 | 90 | 140 | 0.9 | 7.8 | 0.00 | 0.00 | 0.00 | 44 | 1013.5 |
| 20260830151901 | 90 | 133 | 1.7 | 6.1 | 0.00 | 0.00 | 0.00 | 45 | 1013.5 |
| 20260830151401 | 90 | 130 | 1.7 | 7.0 | 0.00 | 0.00 | 0.00 | 44 | 1013.4 |
| 20260830150901 | 91 | 132 | 0.9 | 7.0 | 0.00 | 0.00 | 0.00 | 43 | 1013.4 |
| 20260830150401 | 91 | 140 | 0.9 | 7.0 | 0.00 | 0.00 | 0.00 | 44 | 1013.5 |
| 20260830145902 | 90 | 197 | 1.7 | 7.0 | 0.00 | 0.00 | 0.00 | 45 | 1013.4 |
| 20260830145400 | 90 | 166 | 0.9 | 5.2 | 0.00 | 0.00 | 0.00 | 45 | 1013.5 |
| 20260830144854 | 90 | 129 | 0.9 | 3.5 | 0.00 | 0.00 | 0.00 | 44 | 1013.5 |
| 20260830144354 | 90 | 175 | 1.7 | 7.8 | 0.00 | 0.00 | 0.00 | 44 | 1013.5 |
| 20260830143852 | 90 | 97 | 1.7 | 7.8 | 0.00 | 0.00 | 0.00 | 42 | 1013.5 |
| 20260830143352 | 90 | 145 | 1.7 | 7.0 | 0.00 | 0.00 | 0.00 | 39 | 1013.6 |
| 20260830142851 | 91 | 146 | 0.9 | 7.0 | 0.00 | 0.00 | 0.00 | 41 | 1013.6 |
| 20260830142351 | 91 | 134 | 1.7 | 7.0 | 0.00 | 0.00 | 0.00 | 40 | 1013.6 |
| 20260830141352 | 91 | 96 | 0.9 | 7.0 | 0.00 | 0.00 | 0.00 | 40 | 1013.7 |
| 20260830140853 | 91 | 186 | 0.9 | 6.1 | 0.00 | 0.00 | 0.00 | 41 | 1013.7 |
| 20260830140351 | 90 | 130 | 1.7 | 6.1 | 0.00 | 0.00 | 0.00 | 41 | 1013.8 |
| 20260830135853 | 91 | 121 | 1.7 | 7.0 | 0.00 | 0.00 | 0.00 | 40 | 1013.8 |
| 20260830135349 | 91 | 192 | 1.7 | 7.0 | 0.00 | 0.00 | 0.00 | 41 | 1013.9 |
| 20260830134350 | 90 | 145 | 1.7 | 7.0 | 0.00 | 0.00 | 0.00 | 41 | 1014.0 |
| 20260830133848 | 90 | 198 | 1.7 | 7.0 | 0.00 | 0.00 | 0.00 | 41 | 1014.0 |
| 20260830133352 | 90 | 131 | 2.6 | 7.8 | 0.00 | 0.00 | 0.00 | 41 | 1014.1 |
| 20260830132848 | 90 | 108 | 1.7 | 7.8 | 0.00 | 0.00 | 0.00 | 40 | 1014.1 |
| 20260830132348 | 90 | 185 | 0.9 | 7.0 | 0.00 | 0.00 | 0.00 | 43 | 1014.1 |
| 20260830131848 | 89 | 126 | 1.7 | 7.0 | 0.00 | 0.00 | 0.00 | 41 | 1014.2 |
| 20260830131347 | 89 | 131 | 2.6 | 7.0 | 0.00 | 0.00 | 0.00 | 41 | 1014.2 |
| 20260830130848 | 89 | 150 | 1.7 | 7.0 | 0.00 | 0.00 | 0.00 | 42 | 1014.2 |
| 20260830130347 | 90 | 135 | 0.9 | 3.5 | 0.00 | 0.00 | 0.00 | 42 | 1014.2 |
| 20260830125849 | 90 | 138 | 0.9 | 7.0 | 0.00 | 0.00 | 0.00 | 41 | 1014.3 |
| 20260830125348 | 89 | 190 | 1.7 | 7.0 | 0.00 | 0.00 | 0.00 | 43 | 1014.3 |
| 20260830123848 | 89 | 197 | 1.7 | 7.8 | 0.00 | 0.00 | 0.00 | 42 | 1014.3 |
| 20260830123348 | 89 | 155 | 2.6 | 8.7 | 0.00 | 0.00 | 0.00 | 43 | 1014.4 |
| 20260830122848 | 88 | 90 | 2.6 | 8.7 | 0.00 | 0.00 | 0.00 | 42 | 1014.4 |
| 20260830122350 | 89 | 145 | 3.5 | 8.7 | 0.00 | 0.00 | 0.00 | 43 | 1014.5 |
| 20260830121848 | 88 | 178 | 3.5 | 10.4 | 0.00 | 0.00 | 0.00 | 43 | 1014.5 |
| 20260830120848 | 88 | 80 | 1.7 | 6.1 | 0.00 | 0.00 | 0.00 | 44 | 1014.5 |
| 20260830120348 | 87 | 131 | 2.6 | 7.8 | 0.00 | 0.00 | 0.00 | 45 | 1014.5 |
| 20260830115847 | 87 | 85 | 2.6 | 7.8 | 0.00 | 0.00 | 0.00 | 45 | 1014.5 |
| 20260830115345 | 87 | 125 | 0.9 | 7.8 | 0.00 | 0.00 | 0.00 | 45 | 1014.5 |
| 20260830114346 | 87 | 94 | 1.7 | 6.1 | 0.00 | 0.00 | 0.00 | 46 | 1014.5 |
| 20260830113844 | 87 | 163 | 2.6 | 6.1 | 0.00 | 0.00 | 0.00 | 46 | 1014.5 |
| 20260830112844 | 86 | 94 | 1.7 | 6.1 | 0.00 | 0.00 | 0.00 | 47 | 1014.5 |